ASIASAT 9 (42942 NORAD) Tracking and Keplerian Element Data

This shows tracking and keplerian element data for the satellite.

Feedback or suggestion? Click here.




ElementValue
Catalog42942
NameASIASAT 9
Epoch Orbit295
Epoch Day198.93843449
Epoch Year2018
RAAN83.0245
Inclination0.0073
Eccentricity0.0002028
Argument of Perigee19.8951
Mean Anonmoly292.6968
Mean Motion1.00269824
Decay Rate-3.8E-06
L11 42942U 17057A 18198.93843449 -.00000380 00000-0 00000-0 0 9994
L22 42942 0.0073 83.0245 0002028 19.8951 292.6968 1.00269824 2950

Live tracking and technical data element details for ASIASAT 9 (NORAD 42942). ASIASAT 9 can be tracked NOW for your location showing map with azimuth and elevation plus other details from your city location.

Track the satellite on the map from your city or location and see movement details for azimuth, elevation, latitude, longitude, range, height, and movement on the map or in text.







IsCatalogInMostPopularTable: catalog: 42942, numindb: 105
Update: records affected: 1



GetName: 42942 ASIASAT 9

Hit Count: updated at: Wed, 18 Jul 2018 20:31:40 GMT